Year,Month,Day,Hour,Minute,Value (Times are PST for temperature in C)
2010,06,24,00,00,19.00
2010,06,24,00,01,19.00
2010,06,24,00,02,19.00
2010,06,24,00,03,19.00
2010,06,24,00,04,19.00
2010,06,24,00,05,19.00
2010,06,24,00,06,19.00
2010,06,24,00,07,18.90
2010,06,24,00,08,18.90
2010,06,24,00,09,18.90
2010,06,24,00,10,18.90
2010,06,24,00,11,18.90
2010,06,24,00,12,18.90
2010,06,24,00,13,18.90
2010,06,24,00,14,18.90
2010,06,24,00,15,18.90
2010,06,24,00,16,18.80
2010,06,24,00,17,18.80
2010,06,24,00,18,18.80
2010,06,24,00,19,18.80
2010,06,24,00,20,18.70
2010,06,24,00,21,18.70
2010,06,24,00,22,18.70
2010,06,24,00,23,18.70
2010,06,24,00,24,18.60
2010,06,24,00,25,18.60
2010,06,24,00,26,18.60
2010,06,24,00,27,18.60
2010,06,24,00,28,18.60
2010,06,24,00,29,18.60
2010,06,24,00,30,18.60
2010,06,24,00,31,18.60
2010,06,24,00,32,18.60
2010,06,24,00,33,18.70
2010,06,24,00,34,18.70
2010,06,24,00,35,18.70
2010,06,24,00,36,18.70
2010,06,24,00,37,18.70
2010,06,24,00,38,18.70
2010,06,24,00,39,18.70
2010,06,24,00,40,18.70
2010,06,24,00,41,18.70
2010,06,24,00,42,18.70
2010,06,24,00,43,18.80
2010,06,24,00,44,18.80
2010,06,24,00,45,18.80
2010,06,24,00,46,18.80
2010,06,24,00,47,18.80
2010,06,24,00,48,18.80
2010,06,24,00,49,18.80
2010,06,24,00,50,18.80
2010,06,24,00,51,18.80
2010,06,24,00,52,18.80
2010,06,24,00,53,18.70
2010,06,24,00,54,18.70
2010,06,24,00,55,18.70
2010,06,24,00,56,18.70
2010,06,24,00,57,18.70
2010,06,24,00,58,18.70
2010,06,24,00,59,18.70
2010,06,24,01,00,18.70
2010,06,24,01,01,18.70
2010,06,24,01,02,18.60
2010,06,24,01,03,18.70
2010,06,24,01,04,18.70
2010,06,24,01,05,18.70
2010,06,24,01,06,18.70
2010,06,24,01,07,18.70
2010,06,24,01,08,18.60
2010,06,24,01,09,18.60
2010,06,24,01,10,18.60
2010,06,24,01,11,18.60
2010,06,24,01,12,18.60
2010,06,24,01,13,18.60
2010,06,24,01,14,18.60
2010,06,24,01,15,18.60
2010,06,24,01,16,18.50
2010,06,24,01,17,18.50
2010,06,24,01,18,18.50
2010,06,24,01,19,18.50
2010,06,24,01,20,18.40
2010,06,24,01,21,18.40
2010,06,24,01,22,18.40
2010,06,24,01,23,18.40
2010,06,24,01,24,18.30
2010,06,24,01,25,18.30
2010,06,24,01,26,18.20
2010,06,24,01,27,18.20
2010,06,24,01,28,18.10
2010,06,24,01,29,18.10
2010,06,24,01,30,18.00
2010,06,24,01,31,18.00
2010,06,24,01,32,17.90
2010,06,24,01,33,17.90
2010,06,24,01,34,17.80
2010,06,24,01,35,17.80
2010,06,24,01,36,17.70
2010,06,24,01,37,17.70
2010,06,24,01,38,17.60
2010,06,24,01,39,17.50
2010,06,24,01,40,17.50
2010,06,24,01,41,17.40
2010,06,24,01,42,17.40
2010,06,24,01,43,17.30
2010,06,24,01,44,17.30
2010,06,24,01,45,17.30
2010,06,24,01,46,17.20
2010,06,24,01,47,17.20
2010,06,24,01,48,17.20
2010,06,24,01,49,17.10
2010,06,24,01,50,17.10
2010,06,24,01,51,17.00
2010,06,24,01,52,16.90
2010,06,24,01,53,16.90
2010,06,24,01,54,16.80
2010,06,24,01,55,16.80
2010,06,24,01,56,16.80
2010,06,24,01,57,16.70
2010,06,24,01,58,16.70
2010,06,24,01,59,16.60
2010,06,24,02,00,16.60
2010,06,24,02,01,16.60
2010,06,24,02,02,16.60
2010,06,24,02,03,16.60
2010,06,24,02,04,16.60
2010,06,24,02,05,16.50
2010,06,24,02,06,16.50
2010,06,24,02,07,16.40
2010,06,24,02,08,16.40
2010,06,24,02,09,16.30
2010,06,24,02,10,16.30
2010,06,24,02,11,16.20
2010,06,24,02,12,16.20
2010,06,24,02,13,16.10
2010,06,24,02,14,16.10
2010,06,24,02,15,16.10
2010,06,24,02,16,16.10
2010,06,24,02,17,16.10
2010,06,24,02,18,16.10
2010,06,24,02,19,16.10
2010,06,24,02,20,16.10
2010,06,24,02,21,16.10
2010,06,24,02,22,16.10
2010,06,24,02,23,16.10
2010,06,24,02,24,16.10
2010,06,24,02,25,16.00
2010,06,24,02,26,15.90
2010,06,24,02,27,15.90
2010,06,24,02,28,15.80
2010,06,24,02,29,15.80
2010,06,24,02,30,15.70
2010,06,24,02,31,15.70
2010,06,24,02,32,15.70
2010,06,24,02,33,15.70
2010,06,24,02,34,15.60
2010,06,24,02,35,15.60
2010,06,24,02,36,15.60
2010,06,24,02,37,15.60
2010,06,24,02,38,15.60
2010,06,24,02,39,15.60
2010,06,24,02,40,15.70
2010,06,24,02,41,15.70
2010,06,24,02,42,15.70
2010,06,24,02,43,15.60
2010,06,24,02,44,15.60
2010,06,24,02,45,15.60
2010,06,24,02,46,15.60
2010,06,24,02,47,15.60
2010,06,24,02,48,15.50
2010,06,24,02,49,15.50
2010,06,24,02,50,15.40
2010,06,24,02,51,15.40
2010,06,24,02,52,15.30
2010,06,24,02,53,15.30
2010,06,24,02,54,15.30
2010,06,24,02,55,15.30
2010,06,24,02,56,15.30
2010,06,24,02,57,15.20
2010,06,24,02,58,15.20
2010,06,24,02,59,15.20
2010,06,24,03,00,15.10
2010,06,24,03,01,15.00
2010,06,24,03,02,15.00
2010,06,24,03,03,15.00
2010,06,24,03,04,15.00
2010,06,24,03,05,15.00
2010,06,24,03,06,15.00
2010,06,24,03,07,15.00
2010,06,24,03,08,15.00
2010,06,24,03,09,14.90
2010,06,24,03,10,14.80
2010,06,24,03,11,14.80
2010,06,24,03,12,14.80
2010,06,24,03,13,14.80
2010,06,24,03,14,14.80
2010,06,24,03,15,14.80
2010,06,24,03,16,14.80
2010,06,24,03,17,14.80
2010,06,24,03,18,14.80
2010,06,24,03,19,14.80
2010,06,24,03,20,14.80
2010,06,24,03,21,14.80
2010,06,24,03,22,14.80
2010,06,24,03,23,14.80
2010,06,24,03,24,14.80
2010,06,24,03,25,14.80
2010,06,24,03,26,14.80
2010,06,24,03,27,14.80
2010,06,24,03,28,14.80
2010,06,24,03,29,14.70
2010,06,24,03,30,14.70
2010,06,24,03,31,14.70
2010,06,24,03,32,14.70
2010,06,24,03,33,14.80
2010,06,24,03,34,14.80
2010,06,24,03,35,14.80
2010,06,24,03,36,14.80
2010,06,24,03,37,14.80
2010,06,24,03,38,14.80
2010,06,24,03,39,14.90
2010,06,24,03,40,14.90
2010,06,24,03,41,14.90
2010,06,24,03,42,14.90
2010,06,24,03,43,14.90
2010,06,24,03,44,14.90
2010,06,24,03,45,15.00
2010,06,24,03,46,14.90
2010,06,24,03,47,14.90
2010,06,24,03,48,14.90
2010,06,24,03,49,14.90
2010,06,24,03,50,15.00
2010,06,24,03,51,15.00
2010,06,24,03,52,15.00
2010,06,24,03,53,15.00
2010,06,24,03,54,15.00
2010,06,24,03,55,15.00
2010,06,24,03,56,15.00
2010,06,24,03,57,15.00
2010,06,24,03,58,15.00
2010,06,24,03,59,15.00
2010,06,24,04,00,15.00
2010,06,24,04,01,15.00
2010,06,24,04,02,15.00
2010,06,24,04,03,15.00
2010,06,24,04,04,15.00
2010,06,24,04,05,15.00
2010,06,24,04,06,15.00
2010,06,24,04,07,15.00
2010,06,24,04,08,15.00
2010,06,24,04,09,15.00
2010,06,24,04,10,15.00
2010,06,24,04,11,15.00
2010,06,24,04,12,15.00
2010,06,24,04,13,15.00
2010,06,24,04,14,15.00
2010,06,24,04,15,15.00
2010,06,24,04,16,15.00
2010,06,24,04,17,15.00
2010,06,24,04,18,15.00
2010,06,24,04,19,15.00
2010,06,24,04,20,15.00
2010,06,24,04,21,15.00
2010,06,24,04,22,15.00
2010,06,24,04,23,15.00
2010,06,24,04,24,15.00
2010,06,24,04,25,15.10
2010,06,24,04,26,15.10
2010,06,24,04,27,15.10
2010,06,24,04,28,15.10
2010,06,24,04,29,15.10
2010,06,24,04,30,15.10
2010,06,24,04,31,15.10
2010,06,24,04,32,15.10
2010,06,24,04,33,15.10
2010,06,24,04,34,15.10
2010,06,24,04,35,15.20
2010,06,24,04,36,15.20
2010,06,24,04,37,15.20
2010,06,24,04,38,15.20
2010,06,24,04,39,15.20
2010,06,24,04,40,15.20
2010,06,24,04,41,15.20
2010,06,24,04,42,15.20
2010,06,24,04,43,15.20
2010,06,24,04,44,15.20
2010,06,24,04,45,15.20
2010,06,24,04,46,15.20
2010,06,24,04,47,15.20
2010,06,24,04,48,15.20
2010,06,24,04,49,15.20
2010,06,24,04,50,15.20
2010,06,24,04,51,15.20
2010,06,24,04,52,15.20
2010,06,24,04,53,15.20
2010,06,24,04,54,15.20
2010,06,24,04,55,15.20
2010,06,24,04,56,15.30
2010,06,24,04,57,15.30
2010,06,24,04,58,15.30
2010,06,24,04,59,15.30
2010,06,24,05,00,15.30
2010,06,24,05,01,15.30
2010,06,24,05,02,15.30
2010,06,24,05,03,15.30
2010,06,24,05,04,15.30
2010,06,24,05,05,15.30
2010,06,24,05,06,15.30
2010,06,24,05,07,15.30
2010,06,24,05,08,15.30
2010,06,24,05,09,15.20
2010,06,24,05,10,15.20
2010,06,24,05,11,15.20
2010,06,24,05,12,15.10
2010,06,24,05,13,15.10
2010,06,24,05,14,15.00
2010,06,24,05,15,15.00
2010,06,24,05,16,15.00
2010,06,24,05,17,15.00
2010,06,24,05,18,15.00
2010,06,24,05,19,15.00
2010,06,24,05,20,15.00
2010,06,24,05,21,15.00
2010,06,24,05,22,15.00
2010,06,24,05,23,15.00
2010,06,24,05,24,15.00
2010,06,24,05,25,15.00
2010,06,24,05,26,15.00
2010,06,24,05,27,15.00
2010,06,24,05,28,15.00
2010,06,24,05,29,15.00
2010,06,24,05,30,15.00
2010,06,24,05,31,15.00
2010,06,24,05,32,15.00
2010,06,24,05,33,15.00
2010,06,24,05,34,15.00
2010,06,24,05,35,15.00
2010,06,24,05,36,15.00
2010,06,24,05,37,15.00
2010,06,24,05,38,15.00
2010,06,24,05,39,15.00
2010,06,24,05,40,15.00
2010,06,24,05,41,15.00
2010,06,24,05,42,15.00
2010,06,24,05,43,15.00
2010,06,24,05,44,15.00
2010,06,24,05,45,15.00
2010,06,24,05,46,15.00
2010,06,24,05,47,15.00
2010,06,24,05,48,15.10
2010,06,24,05,49,15.10
2010,06,24,05,50,15.10
2010,06,24,05,51,15.10
2010,06,24,05,52,15.20
2010,06,24,05,53,15.20
2010,06,24,05,54,15.20
2010,06,24,05,55,15.20
2010,06,24,05,56,15.30
2010,06,24,05,57,15.30
2010,06,24,05,58,15.30
2010,06,24,05,59,15.40
2010,06,24,06,00,15.40
2010,06,24,06,01,15.40
2010,06,24,06,02,15.40
2010,06,24,06,03,15.50
2010,06,24,06,04,15.50
2010,06,24,06,05,15.50
2010,06,24,06,06,15.50
2010,06,24,06,07,15.60
2010,06,24,06,08,15.60
2010,06,24,06,09,15.60
2010,06,24,06,10,15.60
2010,06,24,06,11,15.60
2010,06,24,06,12,15.60
2010,06,24,06,13,15.60
2010,06,24,06,14,15.60
2010,06,24,06,15,15.70
2010,06,24,06,16,15.70
2010,06,24,06,17,15.70
2010,06,24,06,18,15.70
2010,06,24,06,19,15.70
2010,06,24,06,20,15.70
2010,06,24,06,21,15.70
2010,06,24,06,22,15.70
2010,06,24,06,23,15.70
2010,06,24,06,24,15.70
2010,06,24,06,25,15.80
2010,06,24,06,26,15.80
2010,06,24,06,27,15.80
2010,06,24,06,28,15.90
2010,06,24,06,29,15.90
2010,06,24,06,30,15.90
2010,06,24,06,31,15.90
2010,06,24,06,32,15.90
2010,06,24,06,33,15.90
2010,06,24,06,34,15.90
2010,06,24,06,35,16.00
2010,06,24,06,36,16.00
2010,06,24,06,37,16.00
2010,06,24,06,38,16.00
2010,06,24,06,39,16.10
2010,06,24,06,40,16.10
2010,06,24,06,41,16.10
2010,06,24,06,42,16.10
2010,06,24,06,43,16.10
2010,06,24,06,44,16.10
2010,06,24,06,45,16.20
2010,06,24,06,46,16.20
2010,06,24,06,47,16.20
2010,06,24,06,48,16.20
2010,06,24,06,49,16.20
2010,06,24,06,50,16.20
2010,06,24,06,51,16.20
2010,06,24,06,52,16.20
2010,06,24,06,53,16.20
2010,06,24,06,54,16.30
2010,06,24,06,55,16.30
2010,06,24,06,56,16.30
2010,06,24,06,57,16.30
2010,06,24,06,58,16.30
2010,06,24,06,59,16.30
2010,06,24,07,00,16.30
2010,06,24,07,01,16.30
2010,06,24,07,02,16.30
2010,06,24,07,03,16.30
2010,06,24,07,04,16.30
2010,06,24,07,05,16.30
2010,06,24,07,06,16.30
2010,06,24,07,07,16.30
2010,06,24,07,08,16.40
2010,06,24,07,09,16.40
2010,06,24,07,10,16.40
2010,06,24,07,11,16.40
2010,06,24,07,12,16.40
2010,06,24,07,13,16.50
2010,06,24,07,14,16.50
2010,06,24,07,15,16.60
2010,06,24,07,16,16.60
2010,06,24,07,17,16.60
2010,06,24,07,18,16.60
2010,06,24,07,19,16.60
2010,06,24,07,20,16.60
2010,06,24,07,21,16.60
2010,06,24,07,22,16.70
2010,06,24,07,23,16.70
2010,06,24,07,24,16.70
2010,06,24,07,25,16.70
2010,06,24,07,26,16.70
2010,06,24,07,27,16.70
2010,06,24,07,28,16.80
2010,06,24,07,29,16.80
2010,06,24,07,30,16.90
2010,06,24,07,31,16.90
2010,06,24,07,32,16.90
2010,06,24,07,33,17.00
2010,06,24,07,34,16.90
2010,06,24,07,35,16.90
2010,06,24,07,36,16.70
2010,06,24,07,37,16.50
2010,06,24,07,38,16.30
2010,06,24,07,39,16.10
2010,06,24,07,40,15.90
2010,06,24,07,41,15.80
2010,06,24,07,42,15.60
2010,06,24,07,43,15.60
2010,06,24,07,44,15.50
2010,06,24,07,45,15.40
2010,06,24,07,46,15.30
2010,06,24,07,47,15.30
2010,06,24,07,48,15.30
2010,06,24,07,49,15.30
2010,06,24,07,50,15.30
2010,06,24,07,51,15.30
2010,06,24,07,52,15.30
2010,06,24,07,53,15.30
2010,06,24,07,54,15.40
2010,06,24,07,55,15.40
2010,06,24,07,56,15.40
2010,06,24,07,57,15.50
2010,06,24,07,58,15.50
2010,06,24,07,59,15.60
2010,06,24,08,00,15.60
2010,06,24,08,01,15.60
2010,06,24,08,02,15.70
2010,06,24,08,03,15.70
2010,06,24,08,04,15.80
2010,06,24,08,05,15.90
2010,06,24,08,06,15.90
2010,06,24,08,07,15.90
2010,06,24,08,08,16.00
2010,06,24,08,09,16.00
2010,06,24,08,10,16.10
2010,06,24,08,11,16.10
2010,06,24,08,12,16.10
2010,06,24,08,13,16.20
2010,06,24,08,14,16.20
2010,06,24,08,15,16.30
2010,06,24,08,16,16.30
2010,06,24,08,17,16.40
2010,06,24,08,18,16.50
2010,06,24,08,19,16.50
2010,06,24,08,20,16.60
2010,06,24,08,21,16.60
2010,06,24,08,22,16.60
2010,06,24,08,23,16.60
2010,06,24,08,24,16.60
2010,06,24,08,25,16.60
2010,06,24,08,26,16.60
2010,06,24,08,27,16.60
2010,06,24,08,28,16.60
2010,06,24,08,29,16.60
2010,06,24,08,30,16.60
2010,06,24,08,31,16.60
2010,06,24,08,32,16.50
2010,06,24,08,33,16.50
2010,06,24,08,34,16.50
2010,06,24,08,35,16.60
2010,06,24,08,36,16.60
2010,06,24,08,37,16.60
2010,06,24,08,38,16.60
2010,06,24,08,39,16.70
2010,06,24,08,40,16.70
2010,06,24,08,41,16.80
2010,06,24,08,42,16.80
2010,06,24,08,43,16.80
2010,06,24,08,44,16.90
2010,06,24,08,45,16.90
2010,06,24,08,46,16.90
2010,06,24,08,47,17.00
2010,06,24,08,48,17.00
2010,06,24,08,49,17.00
2010,06,24,08,50,16.90
2010,06,24,08,51,16.90
2010,06,24,08,52,16.90
2010,06,24,08,53,16.80
2010,06,24,08,54,16.80
2010,06,24,08,55,16.70
2010,06,24,08,56,16.60
2010,06,24,08,57,16.40
2010,06,24,08,58,16.30
2010,06,24,08,59,16.30
2010,06,24,09,00,16.20
2010,06,24,09,01,16.20
2010,06,24,09,02,16.10
2010,06,24,09,03,16.10
2010,06,24,09,04,16.00
2010,06,24,09,05,16.10
2010,06,24,09,06,16.00
2010,06,24,09,07,16.00
2010,06,24,09,08,16.00
2010,06,24,09,09,16.00
2010,06,24,09,10,16.10
2010,06,24,09,11,16.10
2010,06,24,09,12,16.10
2010,06,24,09,13,16.10
2010,06,24,09,14,16.10
2010,06,24,09,15,16.20
2010,06,24,09,16,16.20
2010,06,24,09,17,16.30
2010,06,24,09,18,16.50
2010,06,24,09,19,16.60
2010,06,24,09,20,16.70
2010,06,24,09,21,16.80
2010,06,24,09,22,17.00
2010,06,24,09,23,17.10
2010,06,24,09,24,17.20
2010,06,24,09,25,17.30
2010,06,24,09,26,17.40
2010,06,24,09,27,17.50
2010,06,24,09,28,17.60
2010,06,24,09,29,17.70
2010,06,24,09,30,17.80
2010,06,24,09,31,17.80
2010,06,24,09,32,18.00
2010,06,24,09,33,18.00
2010,06,24,09,34,18.10
2010,06,24,09,35,18.20
2010,06,24,09,36,18.20
2010,06,24,09,37,18.20
2010,06,24,09,38,18.30
2010,06,24,09,39,18.30
2010,06,24,09,40,18.30
2010,06,24,09,41,18.30
2010,06,24,09,42,18.30
2010,06,24,09,43,18.30
2010,06,24,09,44,18.30
2010,06,24,09,45,18.40
2010,06,24,09,46,18.50
2010,06,24,09,47,18.60
2010,06,24,09,48,18.70
2010,06,24,09,49,18.70
2010,06,24,09,50,18.80
2010,06,24,09,51,18.80
2010,06,24,09,52,18.80
2010,06,24,09,53,18.90
2010,06,24,09,54,18.80
2010,06,24,09,55,18.80
2010,06,24,09,56,18.80
2010,06,24,09,57,18.90
2010,06,24,09,58,18.90
2010,06,24,09,59,18.90
2010,06,24,10,00,19.00
2010,06,24,10,01,19.10
2010,06,24,10,02,19.20
2010,06,24,10,03,19.20
2010,06,24,10,04,19.30
2010,06,24,10,05,19.40
2010,06,24,10,06,19.50
2010,06,24,10,07,19.60
2010,06,24,10,08,19.70
2010,06,24,10,09,19.80
2010,06,24,10,10,19.90
2010,06,24,10,11,19.90
2010,06,24,10,12,20.00
2010,06,24,10,13,20.00
2010,06,24,10,14,20.00
2010,06,24,10,15,20.00
2010,06,24,10,16,20.10
2010,06,24,10,18,20.10
2010,06,24,10,19,19.90
2010,06,24,10,20,19.70
2010,06,24,10,21,19.70
2010,06,24,10,22,19.50
2010,06,24,10,23,19.40
2010,06,24,10,24,19.40
2010,06,24,10,26,19.30
2010,06,24,10,27,19.30
2010,06,24,10,28,19.30
2010,06,24,10,29,19.30
2010,06,24,10,30,19.30
2010,06,24,10,31,19.20
2010,06,24,10,32,19.10
2010,06,24,10,33,19.10
2010,06,24,10,34,19.00
2010,06,24,10,35,18.90
2010,06,24,10,36,18.80
2010,06,24,10,37,18.80
2010,06,24,10,38,18.90
2010,06,24,10,39,18.90
2010,06,24,10,40,18.80
2010,06,24,10,41,18.80
2010,06,24,10,42,18.80
2010,06,24,10,43,18.80
2010,06,24,10,44,18.80
2010,06,24,10,45,18.80
2010,06,24,10,46,18.80
2010,06,24,10,47,18.80
2010,06,24,10,48,18.80
2010,06,24,10,49,18.80
2010,06,24,10,50,18.80
2010,06,24,10,51,18.80
2010,06,24,10,52,18.90
2010,06,24,10,53,18.90
2010,06,24,10,54,18.90
2010,06,24,10,55,18.90
2010,06,24,10,56,18.90
2010,06,24,10,57,19.00
2010,06,24,10,58,18.90
2010,06,24,10,59,18.90
2010,06,24,11,00,18.90
2010,06,24,11,01,18.90
2010,06,24,11,02,18.90
2010,06,24,11,03,18.90
2010,06,24,11,04,19.00
2010,06,24,11,05,19.00
2010,06,24,11,06,18.90
2010,06,24,11,07,18.90
2010,06,24,11,08,18.80
2010,06,24,11,09,18.70
2010,06,24,11,10,18.70
2010,06,24,11,11,18.80
2010,06,24,11,12,18.80
2010,06,24,11,13,18.80
2010,06,24,11,14,18.80
2010,06,24,11,15,18.80
2010,06,24,11,16,18.80
2010,06,24,11,17,18.80
2010,06,24,11,18,18.70
2010,06,24,11,19,18.70
2010,06,24,11,20,18.70
2010,06,24,11,21,18.70
2010,06,24,11,22,18.70
2010,06,24,11,23,18.70
2010,06,24,11,24,18.70
2010,06,24,11,25,18.60
2010,06,24,11,26,18.60
2010,06,24,11,27,18.60
2010,06,24,11,28,18.70
2010,06,24,11,29,18.80
2010,06,24,11,30,18.90
2010,06,24,11,31,19.00
2010,06,24,11,32,19.10
2010,06,24,11,33,19.10
2010,06,24,11,34,19.10
2010,06,24,11,35,19.20
2010,06,24,11,36,19.20
2010,06,24,11,37,19.30
2010,06,24,11,38,19.30
2010,06,24,11,39,19.30
2010,06,24,11,40,19.30
2010,06,24,11,41,19.30
2010,06,24,11,42,19.40
2010,06,24,11,43,19.40
2010,06,24,11,44,19.40
2010,06,24,11,45,19.50
2010,06,24,11,46,19.50
2010,06,24,11,47,19.50
2010,06,24,11,48,19.50
2010,06,24,11,49,19.50
2010,06,24,11,50,19.60
2010,06,24,11,51,19.70
2010,06,24,11,52,19.60
2010,06,24,11,53,19.50
2010,06,24,11,54,19.40
2010,06,24,11,55,19.40
2010,06,24,11,56,19.50
2010,06,24,11,57,19.60
2010,06,24,11,58,19.60
2010,06,24,11,59,19.70
2010,06,24,12,00,19.70
2010,06,24,12,01,19.70
2010,06,24,12,02,19.70
2010,06,24,12,03,19.70
2010,06,24,12,04,19.60
2010,06,24,12,05,19.50
2010,06,24,12,06,19.50
2010,06,24,12,07,19.50
2010,06,24,12,08,19.50
2010,06,24,12,09,19.50
2010,06,24,12,10,19.50
2010,06,24,12,11,19.50
2010,06,24,12,12,19.50
2010,06,24,12,13,19.50
2010,06,24,12,14,19.60
2010,06,24,12,15,19.50
2010,06,24,12,16,19.50
2010,06,24,12,17,19.60
2010,06,24,12,18,19.60
2010,06,24,12,19,19.60
2010,06,24,12,20,19.50
2010,06,24,12,21,19.50
2010,06,24,12,22,19.60
2010,06,24,12,23,19.60
2010,06,24,12,24,19.70
2010,06,24,12,25,19.70
2010,06,24,12,26,19.80
2010,06,24,12,27,20.00
2010,06,24,12,28,20.10
2010,06,24,12,29,20.20
2010,06,24,12,30,20.20
2010,06,24,12,31,20.10
2010,06,24,12,32,20.10
2010,06,24,12,33,20.10
2010,06,24,12,34,20.10
2010,06,24,12,35,20.20
2010,06,24,12,36,20.30
2010,06,24,12,37,20.40
2010,06,24,12,38,20.50
2010,06,24,12,39,20.60
2010,06,24,12,40,20.70
2010,06,24,12,41,20.80
2010,06,24,12,42,20.90
2010,06,24,12,43,21.00
2010,06,24,12,44,21.10
2010,06,24,12,45,21.10
2010,06,24,12,46,21.20
2010,06,24,12,47,21.30
2010,06,24,12,48,21.30
2010,06,24,12,49,21.30
2010,06,24,12,50,21.30
2010,06,24,12,51,21.20
2010,06,24,12,52,21.10
2010,06,24,12,53,21.10
2010,06,24,12,54,21.10
2010,06,24,12,55,21.10
2010,06,24,12,56,21.00
2010,06,24,12,57,20.90
2010,06,24,12,58,20.70
2010,06,24,12,59,20.50
2010,06,24,13,00,20.30
2010,06,24,13,01,20.30
2010,06,24,13,02,20.30
2010,06,24,13,03,20.30
2010,06,24,13,04,20.40
2010,06,24,13,05,20.40
2010,06,24,13,06,20.40
2010,06,24,13,07,20.40
2010,06,24,13,08,20.40
2010,06,24,13,09,20.30
2010,06,24,13,10,20.30
2010,06,24,13,11,20.30
2010,06,24,13,12,20.40
2010,06,24,13,13,20.40
2010,06,24,13,14,20.50
2010,06,24,13,15,20.70
2010,06,24,13,16,20.80
2010,06,24,13,17,21.00
2010,06,24,13,18,21.20
2010,06,24,13,19,21.30
2010,06,24,13,20,21.30
2010,06,24,13,21,21.40
2010,06,24,13,22,21.40
2010,06,24,13,23,21.50
2010,06,24,13,24,21.60
2010,06,24,13,25,21.60
2010,06,24,13,26,21.60
2010,06,24,13,27,21.60
2010,06,24,13,28,21.50
2010,06,24,13,29,21.40
2010,06,24,13,30,21.40
2010,06,24,13,31,21.40
2010,06,24,13,32,21.40
2010,06,24,13,33,21.40
2010,06,24,13,34,21.40
2010,06,24,13,35,21.30
2010,06,24,13,36,21.30
2010,06,24,13,37,21.20
2010,06,24,13,38,21.20
2010,06,24,13,39,21.10
2010,06,24,13,40,21.00
2010,06,24,13,41,20.90
2010,06,24,13,42,21.00
2010,06,24,13,43,21.00
2010,06,24,13,44,21.10
2010,06,24,13,45,21.10
2010,06,24,13,46,21.30
2010,06,24,13,47,21.30
2010,06,24,13,48,21.40
2010,06,24,13,49,21.40
2010,06,24,13,50,21.40
2010,06,24,13,51,21.40
2010,06,24,13,52,21.50
2010,06,24,13,53,21.60
2010,06,24,13,54,21.60
2010,06,24,13,55,21.60
2010,06,24,13,56,21.50
2010,06,24,13,57,21.40
2010,06,24,13,58,21.40
2010,06,24,13,59,21.30
2010,06,24,14,00,21.30
2010,06,24,14,01,21.20
2010,06,24,14,02,21.20
2010,06,24,14,03,21.10
2010,06,24,14,04,21.00
2010,06,24,14,05,21.10
2010,06,24,14,06,21.00
2010,06,24,14,07,21.00
2010,06,24,14,08,21.00
2010,06,24,14,09,21.00
2010,06,24,14,10,21.00
2010,06,24,14,11,21.00
2010,06,24,14,12,21.10
2010,06,24,14,13,21.10
2010,06,24,14,14,21.20
2010,06,24,14,15,21.20
2010,06,24,14,16,21.20
2010,06,24,14,17,21.20
2010,06,24,14,18,21.20
2010,06,24,14,19,21.20
2010,06,24,14,20,21.30
2010,06,24,14,21,21.40
2010,06,24,14,22,21.30
2010,06,24,14,23,21.20
2010,06,24,14,24,21.10
2010,06,24,14,25,21.10
2010,06,24,14,26,21.20
2010,06,24,14,27,21.30
2010,06,24,14,28,21.30
2010,06,24,14,29,21.30
2010,06,24,14,30,21.20
2010,06,24,14,31,21.20
2010,06,24,14,32,21.20
2010,06,24,14,33,21.20
2010,06,24,14,34,21.00
2010,06,24,14,35,20.90
2010,06,24,14,36,20.80
2010,06,24,14,37,20.80
2010,06,24,14,38,20.80
2010,06,24,14,39,20.80
2010,06,24,14,40,20.80
2010,06,24,14,41,20.90
2010,06,24,14,42,20.90
2010,06,24,14,43,20.90
2010,06,24,14,44,21.00
2010,06,24,14,45,21.10
2010,06,24,14,46,21.20
2010,06,24,14,47,21.20
2010,06,24,14,48,21.10
2010,06,24,14,49,21.00
2010,06,24,14,50,21.00
2010,06,24,14,51,20.90
2010,06,24,14,52,20.90
2010,06,24,14,53,20.80
2010,06,24,14,54,20.80
2010,06,24,14,55,20.80
2010,06,24,14,56,20.80
2010,06,24,14,57,20.90
2010,06,24,14,58,20.90
2010,06,24,14,59,20.90
2010,06,24,15,00,20.90
2010,06,24,15,01,21.00
2010,06,24,15,02,21.00
2010,06,24,15,03,21.00
2010,06,24,15,04,21.00
2010,06,24,15,05,21.00
2010,06,24,15,06,20.90
2010,06,24,15,07,20.90
2010,06,24,15,08,20.90
2010,06,24,15,09,21.00
2010,06,24,15,10,21.10
2010,06,24,15,11,21.10
2010,06,24,15,12,21.20
2010,06,24,15,13,21.30
2010,06,24,15,14,21.30
2010,06,24,15,15,21.20
2010,06,24,15,16,21.10
2010,06,24,15,17,20.90
2010,06,24,15,18,20.80
2010,06,24,15,19,20.80
2010,06,24,15,20,20.80
2010,06,24,15,21,20.80
2010,06,24,15,22,20.80
2010,06,24,15,23,20.90
2010,06,24,15,24,20.90
2010,06,24,15,25,20.90
2010,06,24,15,26,20.90
2010,06,24,15,27,21.00
2010,06,24,15,28,21.00
2010,06,24,15,29,21.10
2010,06,24,15,30,21.20
2010,06,24,15,31,21.30
2010,06,24,15,32,21.40
2010,06,24,15,33,21.50
2010,06,24,15,34,21.70
2010,06,24,15,35,21.80
2010,06,24,15,36,21.90
2010,06,24,15,37,21.90
2010,06,24,15,38,22.00
2010,06,24,15,39,22.10
2010,06,24,15,40,22.20
2010,06,24,15,41,22.30
2010,06,24,15,42,22.40
2010,06,24,15,43,22.50
2010,06,24,15,44,22.60
2010,06,24,15,45,22.60
2010,06,24,15,46,22.70
2010,06,24,15,47,22.80
2010,06,24,15,48,22.70
2010,06,24,15,49,22.70
2010,06,24,15,50,22.70
2010,06,24,15,51,22.70
2010,06,24,15,52,22.70
2010,06,24,15,53,22.80
2010,06,24,15,54,22.80
2010,06,24,15,55,22.70
2010,06,24,15,56,22.70
2010,06,24,15,57,22.60
2010,06,24,15,58,22.50
2010,06,24,15,59,22.50
2010,06,24,16,00,22.60
2010,06,24,16,01,22.70
2010,06,24,16,02,22.60
2010,06,24,16,03,22.50
2010,06,24,16,04,22.50
2010,06,24,16,05,22.50
2010,06,24,16,06,22.50
2010,06,24,16,07,22.40
2010,06,24,16,08,22.40
2010,06,24,16,09,22.40
2010,06,24,16,10,22.40
2010,06,24,16,11,22.40
2010,06,24,16,12,22.50
2010,06,24,16,13,22.50
2010,06,24,16,14,22.40
2010,06,24,16,15,22.40
2010,06,24,16,16,22.30
2010,06,24,16,17,22.40
2010,06,24,16,18,22.50
2010,06,24,16,19,22.60
2010,06,24,16,20,22.70
2010,06,24,16,21,22.80
2010,06,24,16,22,22.80
2010,06,24,16,23,22.80
2010,06,24,16,24,22.90
2010,06,24,16,25,22.90
2010,06,24,16,26,23.00
2010,06,24,16,27,22.80
2010,06,24,16,28,22.80
2010,06,24,16,29,22.90
2010,06,24,16,30,22.80
2010,06,24,16,31,22.90
2010,06,24,16,32,22.80
2010,06,24,16,33,22.80
2010,06,24,16,34,22.80
2010,06,24,16,35,22.80
2010,06,24,16,36,22.80
2010,06,24,16,37,22.80
2010,06,24,16,38,22.80
2010,06,24,16,39,22.80
2010,06,24,16,40,22.70
2010,06,24,16,41,22.70
2010,06,24,16,42,22.70
2010,06,24,16,43,22.70
2010,06,24,16,44,22.80
2010,06,24,16,45,22.90
2010,06,24,16,46,23.00
2010,06,24,16,47,23.00
2010,06,24,16,48,22.90
2010,06,24,16,49,23.00
2010,06,24,16,50,23.10
2010,06,24,16,51,23.10
2010,06,24,16,52,23.10
2010,06,24,16,53,23.20
2010,06,24,16,54,23.30
2010,06,24,16,55,23.30
2010,06,24,16,56,23.20
2010,06,24,16,57,23.20
2010,06,24,16,58,23.00
2010,06,24,16,59,22.90
2010,06,24,17,00,22.90
2010,06,24,17,01,22.80
2010,06,24,17,02,22.80
2010,06,24,17,03,22.90
2010,06,24,17,04,22.80
2010,06,24,17,05,22.70
2010,06,24,17,06,22.70
2010,06,24,17,07,22.70
2010,06,24,17,08,22.80
2010,06,24,17,09,22.80
2010,06,24,17,10,22.70
2010,06,24,17,11,22.70
2010,06,24,17,12,22.80
2010,06,24,17,13,22.80
2010,06,24,17,14,22.90
2010,06,24,17,15,23.00
2010,06,24,17,16,23.00
2010,06,24,17,17,23.00
2010,06,24,17,18,23.00
2010,06,24,17,19,23.10
2010,06,24,17,20,23.00
2010,06,24,17,21,22.90